Flag for U.S.A. Weather past 2 weeks in Osage City, Kansas, U.S.A.

Now
88 °F

Sunny.


Feels Like: 92 °F
Forecast: 69 / 96 °F
Wind: 13 mph from South

Location: Forbes Field

Current Time: Aug 20, 2014 at 11:45:49 AM

Latest Report: Aug 20, 2014 at 10:53 AM


Visibility: 10 mi

Pressure: 29.84 "Hg

Humidity: 54%

Dew point: 69 °F

Location of Osage CityLocation

Historic Weather in Osage City — Graph

°F

Osage City temperature yesterday

Maximum temperature yesterday: 96 °F (at 4:53 PM)
Minimum temperature yesterday: 72 °F (at 6:53 AM)
Average temperature yesterday: 83 °F

Past Weeks' High & Low Weather Summary

 TemperatureHumidityPressure
High97 °F (Aug 6, 1:53 PM)100% (Aug 8, 7:59 AM)30.15 "Hg (Aug 8, 7:59 AM)
Low54 °F (Aug 13, 6:53 AM)29% (Aug 19, 5:53 PM)29.66 "Hg (Aug 19, 4:53 AM)
Average75 °F72%29.94 "Hg
* Reported Aug 5 9:53 AM — Aug 20 9:53 AM, Osage City, Weather by CustomWeather, © 2014

Note: Actual official high and low records may vary slightly from our data, if they occured in-between our weather recording intervals... More about our weather records

Advertising

Osage City weather history for previous 24 hours

 ConditionsComfort  
Time TempWeatherWind HumidityBarometerVisibility
9:53 AM
Aug 20
84 °FSunny.13 mph61%29.84 "Hg10 mi
8:53 AM80 °FSunny.12 mph69%29.84 "Hg10 mi
7:53 AM76 °FSunny.9 mph80%29.83 "Hg10 mi
6:53 AM73 °FClear.5 mph84%29.80 "Hg10 mi
5:53 AM73 °FClear.6 mph84%29.78 "Hg10 mi
4:53 AM75 °FClear.8 mph79%29.78 "Hg10 mi
3:53 AM75 °FClear.8 mph76%29.79 "Hg10 mi
2:53 AM76 °FClear.8 mph74%29.79 "Hg10 mi
1:53 AM77 °FClear.9 mph71%29.79 "Hg10 mi
12:53 AM76 °FClear.6 mph72%29.78 "Hg10 mi
11:53 PM
Aug 19
78 °FClear.7 mph69%29.78 "Hg10 mi
10:53 PM79 °FClear.7 mph65%29.77 "Hg10 mi
9:53 PM81 °FClear.5 mph62%29.76 "Hg10 mi
8:53 PM82 °FSunny.3 mph70%29.74 "Hg10 mi
7:53 PM88 °FSunny.3 mph54%29.73 "Hg10 mi
6:53 PM93 °FSunny.3 mph36%29.73 "Hg10 mi
5:53 PM96 °FSunny.7 mph29%29.74 "Hg10 mi
4:53 PM96 °FSunny.3 mph34%29.75 "Hg10 mi
3:53 PM95 °FSunny.5 mph36%29.77 "Hg10 mi
2:53 PM94 °FSunny.5 mph38%29.78 "Hg10 mi
1:53 PM90 °FScattered clouds.5 mph50%29.79 "Hg10 mi
12:53 PM90 °FSunny.No wind50%29.80 "Hg10 mi
11:53 AM88 °FSunny.No wind52%29.80 "Hg10 mi
Weather by CustomWeather, © 2014

See weather overviewHow to use our weather pages